Bonaire, Netherlands

6:19 PM AST on August 20, 2017 (GMT -0400)
Flamingo

Weather History for TNCB - January, 2014

Change the Weather History Date:

Saturday, January 11, 2014

  Actual Average Record
Temperature  
Mean Temperature 80 °F -  
Max Temperature 84 °F 84 °F 87 °F (1998)
Min Temperature 77 °F 77 °F 71 °F (2017)
Cooling Degree Days 16    
Growing Degree Days 30 (Base 50)    
Moisture  
Dew Point 72 °F    
Average Humidity 77    
Maximum Humidity 89    
Minimum Humidity 70    
Precipitation  
Precipitation 0.00 in - - ()
Sea Level Pressure  
Sea Level Pressure 29.96 in    
Wind  
Wind Speed 13 mph ()    
Max Wind Speed 20 mph    
Max Gust Speed -    
Visibility 6.2 miles    
Events      
Averages and records for this station are not official NWS values.
T = Trace of Precipitation, MM = Missing Value Source: Averaged Metar Reports

Daily Weather History Graph

Daily Weather History Graph

Search for Another Location

Airport or City:

Trip Planner

Search our weather history database for the weather conditions in past years. The results will help you decide how hot, cold, wet, or windy it might be!

Date:

Astronomy

Jan. 11, 2014 Rise Set
Actual Time 6:57 AM AST 6:25 PM AST
Civil Twilight 6:34 AM AST 6:47 PM AST
Nautical Twilight 6:08 AM AST 7:14 PM AST
Astronomical Twilight 5:42 AM AST 7:40 PM AST
Moon 2:59 PM AST (1/11) 3:07 AM AST (1/11)
Length of Visible Light 12h 13m
Length of Day
11h 28m
Waxing Gibbous, 82% of the Moon is Illuminated
Jan 11
Waxing Gibbous
Jan 16
Full
Jan 24
Last Quarter
Jan 30
New
Feb 6
First Quarter

Hourly Weather History & Observations

Time (AST) Temp. Heat Index Dew Point Humidity Pressure Visibility Wind Dir Wind Speed Gust Speed Precip Events Conditions
1:00 AM - - - N/A% 29.95 in - ENE 13.8 mph - N/A   Unknown
2:00 AM - - - N/A% 29.95 in - ENE 12.7 mph - N/A   Unknown
4:00 AM 78.8 °F - 71.6 °F 78% 29.92 in - ENE 11.5 mph - N/A   Unknown
5:00 AM 77.0 °F - 73.4 °F 89% 29.92 in - ENE 12.7 mph - N/A   Unknown
6:00 AM 77.0 °F - 71.6 °F 83% 29.95 in - ENE 12.7 mph - N/A   Unknown
7:00 AM 77.0 °F - 71.6 °F 83% 29.95 in - ENE 15.0 mph - N/A   Unknown
8:00 AM 78.8 °F - 71.6 °F 78% 29.98 in 6.2 mi ENE 15.0 mph - N/A   Partly Cloudy
9:00 AM 82.4 °F 87.2 °F 71.6 °F 70% 30.04 in 6.2 mi East 17.3 mph - N/A   Partly Cloudy
10:00 AM 82.4 °F 87.2 °F 71.6 °F 70% 30.04 in 6.2 mi East 19.6 mph - N/A   Scattered Clouds
11:00 AM 82.4 °F 87.2 °F 71.6 °F 70% 30.04 in 6.2 mi East 19.6 mph - N/A   Scattered Clouds
12:00 PM 84.2 °F 90.9 °F 73.4 °F 70% 30.01 in 6.2 mi East 18.4 mph - N/A   Scattered Clouds
1:00 PM 84.2 °F 92.3 °F 75.2 °F 74% 29.98 in 6.2 mi East 16.1 mph - N/A   Scattered Clouds
2:00 PM 77.0 °F - 71.6 °F 83% 29.95 in 6.2 mi East 16.1 mph - N/A   Scattered Clouds
3:00 PM 82.4 °F 89.5 °F 75.2 °F 79% 29.92 in 6.2 mi East 15.0 mph - N/A   Scattered Clouds
4:00 PM 80.6 °F 84.6 °F 71.6 °F 74% 29.92 in 6.2 mi East 17.3 mph - N/A   Partly Cloudy
5:00 PM 80.6 °F 84.6 °F 71.6 °F 74% 29.92 in 6.2 mi East 17.3 mph - N/A   Partly Cloudy
6:00 PM 80.6 °F 84.6 °F 71.6 °F 74% 29.92 in 6.2 mi East 16.1 mph - N/A   Scattered Clouds
7:00 PM 78.8 °F - 71.6 °F 78% 29.95 in 6.2 mi East 10.4 mph - N/A   Scattered Clouds
8:00 PM 78.8 °F - 71.6 °F 78% 29.95 in 6.2 mi East 12.7 mph - N/A   Scattered Clouds
9:00 PM 78.8 °F - 73.4 °F 83% 29.98 in 6.2 mi ENE 12.7 mph - N/A   Scattered Clouds
10:00 PM 78.8 °F - 71.6 °F 78% 29.98 in - ENE 13.8 mph - N/A   Unknown
11:00 PM 78.8 °F - 73.4 °F 83% 29.98 in - ENE 12.7 mph - N/A   Unknown